www.pogodaiklimat.ru

Погода и климат >> Архив погоды >> Россия >> Краснодарский край >> Новороссийск


АРХИВ ПОГОДЫ в Новороссийске

Время (UTC), дата Ветер
(напр.,м/с)
 
Видим.   Явления Облачность Т
(С)
Тd
(С)
f
(%)
Тe
(С)
Тes
(С)
Комфортность P
(гПа)
Po
(гПа)
Тmin
(С)
Tmax
(С)
R
(мм)
R24
(мм)
S
(см)
00 13.05 СВ 1 10 км слаб. ливневой дождь 10/10 600 м
[Cb cap]
+14.9 +12.3 84 +15 +15 тепло 1020.7 1019.4
03 13.05 В 1 10 км {ливн. осадки} 10/10 600 м
[Sc]
+14.7 +12.2 85 +15 +15 тепло 1020.4 1019.1 +14.4 0.6
06 13.05 Ю 2 20 км в посл. час ливневой дождь 9/9 600 м
[Cb cap]
+16.6 +13.0 79 +17 +18 тепло 1020.9 1019.6
09 13.05 ЮВ 1 20 км 10/10 600 м
[Cb cap]
+16.7 +12.8 78 +18 +18 тепло 1021.7 1020.4
12 13.05 Ю 2 20 км 8/4 600 м
[Cu med, cong Ac As]
+17.2 +12.9 76 +18 +22 тепло 1021.6 1020.3
15 13.05 Ю 2 20 км 8/3 600 м
[Cu med, cong Ac As]
+16.2 +12.0 76 +16 +17 тепло 1020.8 1019.5 +17.8 1
18 13.05 СВ 1 10 км 10/10 600 м
[Sc diur, vesp]
+15.7 +11.9 78 +16 +16 тепло 1021.4 1020.1
21 13.05 СВ 1 10 км 10/10 600 м
[Sc]
+13.6 +10.8 83 +14 +14 тепло 1020.8 1019.5
00 14.05 штиль 0 10 км 8/3 600 м
[Sc Ac As]
+12.3 +10.2 87 +12 +12 по сезону 1020.4 1019.1
03 14.05 СВ 1 20 км ясно +11.3 +9.4 88 +11 +12 по сезону 1020.3 1018.9 +11.2
06 14.05 Ю 1 20 км 3/1 600 м
[Cu hum Ci fib]
+16.3 +11.7 74 +17 +27 тепло 1020.7 1019.4
09 14.05 Ю 2 20 км 4/3 600 м
[Cu hum Ci fib]
+17.8 +12.0 69 +18 +31 опасность
простуды
1020.4 1019.1
12 14.05 Ю 3 20 км 3/0
[Ci fib]
+18.4 +11.7 65 +19 +29 тепло 1020.3 1019.0
15 14.05 Ю 2 20 км 4/0
[Ci fib]
+17.7 +11.8 68 +18 +20 тепло 1019.6 1018.3 +18.8
18 14.05 СВ 1 10 км 8/0
[Ci fib]
+15.1 +10.7 75 +16 +16 тепло 1019.5 1018.2
21 14.05 С 1 10 км ясно +13.8 +9.7 76 +14 +14 тепло 1018.8 1017.4
00 15.05 СВ 1 10 км ясно +13.0 +9.7 80 +13 +13 тепло 1018.0 1016.7
03 15.05 штиль 0 20 км 9/0
[Ci fib]
+13.6 +10.6 82 +13 +14 по сезону 1017.9 1016.6 +12.8
06 15.05 штиль 0 20 км 4/0
[Ci fib]
+20.5 +11.2 55 +22 +34 комфорт 1018.4 1017.1
09 15.05 Ю 2 20 км 3/0
[Ci fib]
+21.7 +13.3 59 +24 +41 комфорт 1017.9 1016.6
15 15.05 СЗ 2 20 км 4/0
[Ci fib]
+23.2 +11.7 48 +26 +28 жарко 1015.4 1014.1 +24.2
18 15.05 СВ 8-13
{13}
10 км 3/0
[Ci fib]
+24.6 +9.8 39 +25 +25 комфорт 1014.3 1013.1
21 15.05 СВ 11-18
{19}
10 км 3/0
[Ci fib]
+24.1 +10.5 42 +25 +25 комфорт 1012.8 1011.5
00 16.05 СВ 10-18
{21}
10 км ясно +23.4 +10.1 43 +25 +25 комфорт 1011.7 1010.4
03 16.05 СВ 9-15
{22}
20 км ясно +23.2 +10.0 43 +25 +25 комфорт 1011.1 1009.8 +22.6
06 16.05 СВ 10-17
{19}
20 км ясно +25.7 +8.2 33 +26 +26 жарко 1011.2 1009.9
09 16.05 СВ 10-17
{22}
20 км ясно +28.0 +8.3 29 +28 +29 жарко 1010.4 1009.1
12 16.05 СВ 9-14
{19}
20 км ясно +29.6 +9.2 28 +29 +31 жарко 1009.7 1008.5
15 16.05 СВ 7-12
{15}
20 км ясно +28.8 +11.4 34 +29 +30 жарко 1009.4 1008.1 +29.8
18 16.05 СВ 7-12
{13}
10 км 1/0
[Ci sp]
+26.5 +12.9 43 +28 +28 жарко 1010.1 1008.8
21 16.05 СВ 7-12
{13}
10 км 8/0
[Cc]
+25.5 +13.0 46 +27 +27 жарко 1009.7 1008.5
00 17.05 СВ 4
{14}
10 км 10/0
[Cc]
+24.0 +12.9 50 +26 +26 жарко 1009.6 1008.3
03 17.05 З 2 20 км 10/0
[Cs]
+19.0 +14.3 74 +21 +21 комфорт 1010.1 1008.8 +19.0
06 17.05 Ю 2 20 км 8/0
[Ci fib]
+20.7 +15.0 70 +24 +30 комфорт 1011.0 1009.7 +18.9
09 17.05 Ю 2 20 км 4/1 1000 м
[Cu hum Cc]
+22.7 +14.8 61 +26 +42 жарко 1012.0 1010.7
12 17.05 Ю 1 20 км 3/0
[Ci sp]
+22.5 +14.9 62 +26 +41 жарко 1010.7 1009.4
15 17.05 Ю 1 20 км 3/0
[Cc]
+21.7 +13.4 59 +24 +27 комфорт 1008.8 1007.5 +23.1
18 17.05 СВ 7-11
{11}
10 км ясно +26.7 +12.0 40 +28 +28 жарко 1007.1 1005.8
21 17.05 СВ 6-11
{13}
10 км ясно +27.1 +9.4 33 +27 +27 жарко 1006.4 1005.2
00 18.05 В 2
{12}
10 км 3/0
[Ci sp]
+25.2 +11.1 41 +26 +26 жарко 1005.5 1004.2
03 18.05 штиль 0 20 км 9/0
[Ac und]
+21.3 +14.0 63 +24 +24 комфорт 1005.4 1004.2 +20.3
06 18.05 штиль 0 20 км 8/8 600 м
[Sc]
+20.5 +15.1 71 +23 +26 комфорт 1005.6 1004.3
09 18.05 штиль 0 20 км 8/0
[Cc]
+24.6 +16.5 61 +28 +49 душно 1005.7 1004.4
12 18.05 ЮЗ 1 20 км 6/0
[Cc]
+26.8 +12.8 42 +28 +42 жарко 1005.2 1003.9
15 18.05 СВ 8-16
{17}
20 км 8/0
[Ci fib]
+28.6 +14.5 42 +31 +31 жарко 1002.5 1001.2 +29.5
18 18.05 СВ 5-12
{16}
10 км 8/0
[Cc]
+27.0 +12.2 40 +28 +28 жарко 1004.3 1003.1
21 18.05 СВ 6-12
{12}
10 км 9/0
[Ac trans Ci fib]
+25.3 +12.8 46 +27 +27 жарко 1003.2 1001.9
00 19.05 СВ 4-12
{12}
10 км 8/0
[Ac trans Ci fib]
+22.9 +14.2 58 +26 +26 жарко 1004.2 1002.9
03 19.05 Ю 1
{12}
20 км 8/8 600 м
[Sc]
+19.9 +16.6 81 +24 +24 комфорт 1006.2 1004.9 +19.9
06 19.05 Ю 3 4000 м дымка 10/10 300 м
[Cb calv]
+20.0 +16.3 79 +23 +23 комфорт 1008.1 1006.8 +19.7
09 19.05 Ю 1 4000 м дымка {ливн. осадки} 10/10 300 м
[Cb cap]
+19.4 +16.5 83 +22 +22 комфорт 1010.3 1009.0
12 19.05 Ю 1 10 км {ливн. осадки} 9/9 600 м
[Sc]
+19.7 +16.1 80 +23 +25 комфорт 1011.0 1009.7
15 19.05 Ю 1 10 км 10/10 300 м
[Sc]
+20.1 +14.9 72 +24 +24 комфорт 1011.7 1010.4 +21.0 0.9
18 19.05 З 1 10 км 9/9 600 м
[Sc]
+19.1 +14.8 76 +22 +22 комфорт 1012.4 1011.1
21 19.05 штиль 0 10 км 9/8 600 м
[Sc Ci fib]
+18.1 +15.3 84 +18 +18 тепло 1012.8 1011.5

 

Местоположение метеостанции Новороссийск (Краснодарский край, Россия): широта 44.72 долгота 37.85 высота над уровнем моря 3 м.

В архиве по умолчанию представлена погода в Новороссийске за последнюю неделю. Архивные данные за месяц целиком и за предыдущие месяцы, начиная с января 2011 года, Вы можете получить, выбрав интересующий диапазон дат из раскрывающегося списка и нажав кнопку "Ввод!".


*Определитесь, кто Вы:
робот инопланетянин человек

Внимание! Время в таблицах - всемирное. Для получения местного времени необходимо прибавить поправку, которая равна 3 ч.

Смотрите также архив погоды в соседних городах и на ближайших метеорологических станциях:

Погода в Геленджике (Краснодарский край, Россия) (25 км)
Погода в Крымске (Краснодарский край, Россия) (25 км)
Погода в Анапе (Краснодарский край, Россия) (48 км)
Погода в Славянске-на-Кубани (Краснодарский край, Россия) (66 км)
Погода в Темрюке (Краснодарский край, Россия) (76 км)
Погода в Джубге (Краснодарский край, Россия) (81 км)
Погода в Горячем Ключе (Краснодарский край, Россия) (99 км)
Погода в Краснодаре (Краснодарский край, Россия) (100 км)
Погода в Тамани (Краснодарский край, Россия) (105 км)
Погода в Туапсе (Краснодарский край, Россия) (119 км)

Пояснения к столбцам:

Ветер - указаны скорость ветра в м/с - средняя за 10 мин, порывы в срок и между сроками (в фигурных скобках) и направление, откуда дует ветер: С - северный, СВ - северо-восточный, В - восточный, ЮВ - юго-восточный, Ю - южный, ЮЗ - юго-западный, З - западный, СЗ - северо-западный.
Видимость - горизонтальная дальность видимости в метрах или километрах. При видимости от 1 до 10 км при отсутствии осадков обычно наблюдается дымка, при ухудшении видимости до 1 км и менее - туман. В сухую погоду видимость может ухудшаться дымом, пылью или мглою.
Явления - указаны атмосферные явления, наблюдавшиеся в срок или в последний час перед сроком; фигурными скобками обозначены явления, наблюдавшиеся между сроками (за 1-3 часа до срока); квадратными скобками обозначены град или гололедные отложения с указанием их диаметра в мм.
Облачность - указаны через наклонную черту общая и нижняя облачность в баллах и высота нижней границы облаков в метрах; квадратными скобками обозначены формы облаков: Ci - перистые, Cs - перисто-слоистые, Cc - перисто-кучевые, Ac - высококучевые, As - высокослоистые, Sc - слоисто-кучевые, Ns - слоисто-дождевые, Cu - кучевые, Cb - кучево-дождевые. Подробнее классификацию облаков см. в Атласе облаков (PDF).
T - Температура воздуха - температура, измеренная на высоте 2 м над землей.
Td - Температура точки росы - температура, при понижении до которой содержащийся в воздухе водяной пар достигнет насыщения.
f - Относительная влажность воздуха - влажноcть воздуха, измеренная на высоте 2 м над землей.
Te - Эффективная температура - температура, которую ощущает одетый по сезону человек в тени. Характеристика душности погоды. При расчете учитывается влияние влажности воздуха и скорости ветра на теплоощущения человека.
Tes - Эффективная температура на солнце - температура, которую ощущает человек, с поправкой на солнечный нагрев. Характеристика знойности погоды. Зависит от высоты солнца над горизонтом, облачности и скорости ветра. Ночью, в пасмурную погоду, а также при ветре 12 м/с и более поправка равна нулю.
P - Атмосферное давление - приведенное к уровню моря атмосферное давление.
Po - Атмосферное давление - измеренное на уровне метеостанции атмосферное давление.
Tmin - Минимальная температура - минимум температуры воздуха на высоте 2 м над землей.
Tmax - Максимальная температура - максимум температуры воздуха на высоте 2 м над землей.
R - Количество осадков - Количество выпавших осадков за период времени, мм. При наведении курсора мыши на число - период времени, за который выпало указанное количество осадков.
R24 - Количество осадков - Количество выпавших осадков за 24 часа, мм.
S - Снежный покров - Высота снежного покрова, см. При наведении курсора мыши на число - состояние снежного покрова и степень покрытия местности в баллах.